Temperature
20 20 19 20 20 20 20 21 21 21 21 21 21 20 19 18 17 16 16 15 15 15 15 15 15 15 15 15 15 15 15 15 15 15 15 14 14 14 14 14 14 14 13 13
19 19 19 19 19 20 20 20 20 20 20 21 20 19 18 17 17 16 16 15 15 15 15 15 15 15 15 15 15 14 14 14 14 14 14 14 14 14 14 14 13 13 13 13
19 19 18 19 20 20 19 20 20 20 21 20 19 18 17 17 16 15 15 15 14 14 14 14 14 14 14 14 14 14 14 14 14 14 14 14 14 14 14 13 13 13 13 13
18 18 18 20 20 19 19 19 20 20 20 19 18 17 16 16 15 15 14 14 14 14 14 14 14 14 13 14 14 14 13 13 13 13 13 13 13 13 13 13 13 13 13 13
18 18 19 20 19 18 18 19 19 19 18 17 16 16 16 15 14 14 14 14 13 13 13 13 13 13 13 13 13 13 13 13 13 13 13 13 13 13 13 13 13 12 12 12
17 17 18 19 18 17 18 18 18 17 17 16 16 18 18 15 14 14 13 13 13 13 13 13 13 13 13 13 13 13 13 13 13 13 13 13 13 13 12 12 12 12 12 12
17 17 18 18 16 17 17 18 17 16 16 15 16 17 15 14 13 13 13 13 13 13 13 13 12 12 12 12 12 12 12 12 12 12 12 12 12 12 12 12 12 12 11 12
17 17 17 16 16 17 17 16 15 15 15 14 14 14 13 13 12 12 12 12 12 12 12 12 12 12 12 11 11 12 12 12 12 12 12 12 12 12 12 12 11 11 11 11
17 17 16 15 15 15 14 15 14 14 14 13 13 13 12 12 12 12 12 12 12 12 12 11 11 11 11 11 11 11 11 11 11 11 11 11 11 11 11 11 11 11 11 11
16 16 15 14 14 13 13 13 13 13 13 13 12 12 12 12 11 11 11 11 11 11 11 11 11 11 11 11 11 11 11 10 10 10 10 11 11 11 11 11 10 10 10 10
15 15 14 13 13 13 12 12 12 12 12 12 12 11 11 11 11 11 10 10 10 10 10 10 10 10 10 10 10 10 10 10 10 10 10 10 10 10 10 10 10 10 10 10
15 15 15 14 13 12 12 12 12 12 11 11 11 11 11 10 10 10 10 10 9 9 9 9 10 10 10 9 9 9 9 9 9 9 9 9 9 9 10 10 10 10 10 10
13 13 13 12 12 12 11 11 11 11 11 10 10 10 10 10 9 9 9 9 9 9 9 9 9 9 9 9 9 9 9 9 9 9 9 9 9 9 9 9 9 9 10 9
11 11 11 11 11 11 11 10 10 10 10 10 10 9 9 9 9 9 9 9 8 8 8 8 8 8 8 8 8 8 8 8 8 8 8 8 8 8 8 8 9 9 9 9
10 10 11 10 10 10 10 10 9 9 9 9 9 9 9 8 8 8 8 8 8 8 8 8 8 8 8 8 7 7 7 7 8 8 8 8 8 8 8 8 8 8 8 8
10 10 9 9 9 9 9 9 9 9 8 8 8 8 8 8 8 8 8 8 7 7 7 7 7 7 7 7 7 7 7 7 7 7 7 7 7 7 7 7 7 7 7 7
9 9 9 9 9 8 8 8 8 8 8 8 8 8 8 8 8 7 7 7 7 7 7 6 6 7 7 7 6 6 6 6 6 6 6 6 6 6 6 6 6 7 7 7
9 9 9 8 8 8 8 8 8 8 7 8 8 7 7 7 7 7 7 6 6 6 6 6 6 6 6 6 6 6 6 6 6 5 6 6 6 6 6 6 6 6 6 6
8 8 8 8 7 7 7 7 7 7 7 7 7 7 7 6 6 6 6 6 6 6 5 6 6 6 5 5 5 5 5 5 5 5 5 5 5 5 5 5 5 5 5 5
8 8 7 7 7 7 7 7 7 7 7 7 6 6 6 6 6 5 5 5 5 5 5 5 5 5 5 5 5 4 4 4 4 4 4 4 5 5 4 5 5 5 5 5
7 7 7 7 7 7 7 6 6 6 6 6 6 6 5 5 5 5 5 5 4 5 5 5 4 4 4 4 4 4 3 3 3 4 4 4 4 4 4 4 4 4 4 4
7 7 6 6 6 6 6 6 6 6 6 5 5 5 5 5 5 4 4 4 4 4 4 4 4 4 4 4 3 3 3 3 3 3 3 3 3 3 3 3 3 4 4 4
6 6 6 6 6 6 6 6 5 5 5 5 5 4 4 4 4 4 3 3 3 3 3 3 3 3 3 3 3 3 3 3 3 3 3 2 2 3 3 3 3 3 3 3
6 6 6 5 5 5 5 5 5 5 4 4 4 4 4 3 3 3 3 3 3 3 3 3 3 3 3 2 2 2 2 2 2 2 2 2 2 2 2 2 2 2 2 2
5 5 5 5 5 4 4 4 4 4 4 4 3 3 3 3 3 3 3 3 2 2 2 2 2 2 2 2 2 2 2 2 2 2 1 1 1 1 1 1 2 2 2 2
5 5 4 4 4 4 4 3 3 3 3 3 3 3 3 2 2 2 2 2 2 2 2 2 2 2 1 1 1 1 1 1 1 1 1 1 1 1 1 1 1 1 1 1
4 4 4 4 3 3 3 3 3 3 2 2 2 2 2 2 2 2 2 1 1 1 1 1 1 1 1 1 1 0 0 0 0 0 0 0 0 0 0 0 0 0 0 0
Wind_Speed
8 6 7 10 11 11 13 13 11 10 10 9 6 4 3 3 2 1 0 1 1 1 1 1 1 1 1 2 2 2 3 4 4 4 4 4 5 5 5 5 5 5 5 5
9 7 8 12 12 12 13 13 14 13 12 6 4 3 3 3 2 2 2 2 2 2 2 2 2 2 2 2 2 2 3 3 3 3 3 4 4 5 5 5 5 5 6 6
8 5 8 11 11 12 11 10 10 12 9 4 4 4 4 3 3 3 3 3 3 3 3 3 2 2 2 2 2 2 3 3 3 3 3 4 4 5 5 5 5 6 6 6
6 6 9 3 2 5 9 9 9 9 6 5 5 3 3 2 3 3 3 3 3 3 3 3 3 3 3 3 2 2 2 2 3 4 4 4 5 5 6 6 6 6 6 7
6 8 9 5 3 4 7 7 5 6 5 3 1 2 3 1 2 4 4 4 3 3 3 3 3 3 3 3 3 3 3 4 4 4 5 5 6 6 6 6 6 7 6 7
7 8 7 3 2 1 5 7 3 4 4 3 3 6 3 2 3 4 3 3 3 3 3 3 3 3 4 4 4 4 4 5 5 5 5 6 6 6 6 6 7 7 7 7
11 10 8 1 1 2 6 3 0 3 4 4 5 6 4 3 3 3 3 3 2 2 3 3 3 3 4 4 5 5 5 5 5 6 6 6 6 5 6 6 6 7 7 7
8 9 7 3 3 4 3 4 2 3 4 5 5 4 4 4 4 4 4 3 3 3 3 4 4 4 5 5 5 5 5 6 6 6 5 5 5 5 6 6 7 7 7 7
6 4 1 2 3 3 4 4 4 4 4 4 4 5 4 4 4 4 4 4 4 4 4 4 4 5 6 6 5 6 6 6 6 6 5 5 5 6 6 6 6 6 6 6
6 6 5 5 5 5 5 5 5 4 4 4 5 5 5 4 4 4 4 4 4 5 5 5 5 6 6 6 6 6 6 6 6 6 6 5 5 5 5 6 6 6 7 7
9 7 6 6 6 6 5 5 4 4 4 4 4 5 5 5 5 5 5 5 5 5 6 6 6 6 6 6 6 6 7 6 6 6 6 6 6 6 7 7 7 7 7 7
9 7 7 7 6 6 6 6 5 4 4 4 4 4 5 5 5 5 5 5 6 6 7 7 7 7 6 6 6 7 7 6 6 5 5 6 6 6 6 7 7 9 9 9
8 7 7 7 6 6 6 6 5 5 5 4 4 4 4 4 4 5 6 6 6 7 7 7 7 7 6 6 6 7 7 7 6 6 6 6 6 6 7 6 7 8 9 9
7 6 7 7 7 6 6 5 4 4 4 4 4 4 4 4 5 6 6 6 7 7 7 7 6 7 6 6 6 7 7 7 7 6 6 6 6 7 7 7 7 6 6 8
7 7 7 6 5 4 4 4 4 4 3 3 3 3 4 5 6 6 6 6 6 6 6 6 6 6 6 6 6 7 7 6 6 6 6 7 6 7 7 8 8 7 6 5
6 5 5 5 5 4 4 4 4 4 4 4 4 4 5 5 5 5 5 5 5 6 6 6 6 6 6 6 6 6 6 6 7 6 6 7 7 7 7 7 7 7 7 6
6 5 5 5 5 4 4 4 4 4 4 4 5 5 5 5 5 5 5 4 5 5 6 6 6 6 6 6 6 5 6 6 7 7 7 7 7 7 7 7 7 7 7 6
7 6 6 5 5 4 4 4 3 3 4 4 4 4 4 5 5 5 5 5 5 5 5 5 6 6 6 6 5 5 5 6 6 6 6 6 7 7 7 8 8 8 7 6
4 4 4 4 4 3 3 3 3 3 3 3 4 5 5 5 5 5 5 5 5 5 5 6 7 6 6 6 6 5 6 6 6 6 6 7 7 7 7 7 8 8 7 7
2 2 2 2 2 2 2 2 3 3 3 3 4 5 5 5 5 5 5 5 5 5 6 7 7 6 6 6 5 5 6 6 6 6 6 6 7 7 7 8 8 8 8 7
1 1 1 2 2 2 3 3 3 4 4 4 4 5 5 5 5 5 5 5 5 6 6 7 6 5 5 5 5 5 5 6 6 6 6 6 7 7 7 7 7 7 7 7
1 2 2 2 2 3 3 3 4 4 4 4 5 5 5 5 6 5 5 5 6 6 6 5 5 6 7 6 5 5 5 6 6 6 6 6 6 7 7 7 7 7 7 7
2 2 2 2 3 3 3 3 3 4 4 5 5 5 5 5 5 5 6 5 5 7 6 6 7 8 8 6 5 5 6 6 6 6 6 6 7 7 7 7 7 7 6 6
2 2 2 2 2 2 3 3 4 4 4 4 4 5 5 5 5 5 5 6 7 7 6 6 6 7 7 5 5 5 6 6 6 6 6 6 6 7 6 7 7 7 7 7
2 2 2 2 2 3 3 4 4 4 4 4 4 5 4 4 5 5 6 6 7 7 6 6 6 7 6 5 5 6 6 6 6 6 6 6 6 6 6 6 6 7 6 6
2 2 2 3 3 3 3 3 3 4 4 4 4 4 4 4 5 5 5 5 7 7 6 6 6 5 5 5 5 6 6 6 6 6 6 6 7 7 6 7 8 7 6 6
2 2 2 3 3 3 3 3 4 4 4 5 5 5 5 5 5 5 6 5 5 5 5 5 5 5 5 5 5 5 5 5 5 6 6 6 6 6 6 7 6 6 5 5
Wind_Direction
266 269 263 261 252 236 237 248 257 264 269 279 276 263 238 215 205 219 319 6 2 347 336 309 300 306 308 297 264 226 222 229 232 233 229 228 227 225 225 228 232 230 229 227
256 248 254 260 254 241 241 246 250 260 266 282 288 253 234 224 222 239 267 281 296 304 307 297 290 285 291 293 287 253 235 240 243 241 235 230 228 228 228 229 236 237 236 234
261 255 262 254 244 235 234 237 245 252 262 269 254 242 240 236 236 249 265 280 289 293 295 294 290 284 276 275 280 261 246 242 243 242 239 239 237 231 230 232 234 238 238 239
264 257 248 252 145 231 239 247 248 258 271 259 254 252 251 243 248 260 274 280 285 294 299 303 299 287 275 265 260 261 263 264 258 250 246 246 245 243 240 239 236 239 241 241
246 254 265 252 217 221 237 250 249 250 260 258 216 240 241 264 271 274 278 277 276 286 295 300 301 293 280 269 266 264 263 264 268 262 252 247 246 247 247 244 242 241 241 239
235 250 257 259 129 257 248 246 212 235 242 230 221 250 266 341 296 288 289 282 280 279 285 294 301 293 279 276 272 271 269 266 265 264 258 252 250 248 249 246 245 246 243 240
236 246 259 332 116 185 231 292 172 242 246 236 247 288 306 295 300 290 286 286 287 278 282 290 294 287 280 282 282 287 280 272 268 264 263 261 258 253 249 247 246 246 246 243
229 240 248 116 162 214 293 350 308 267 257 257 276 301 301 292 292 287 280 282 284 279 282 285 282 278 279 282 289 291 284 275 269 267 264 260 258 256 251 247 245 245 246 247
231 248 13 183 234 289 311 295 293 278 270 265 273 285 290 288 288 287 284 282 280 279 283 284 279 273 274 280 286 287 283 278 273 269 264 260 257 256 251 246 246 247 246 248
249 252 259 264 264 273 279 279 284 276 267 260 269 277 279 282 286 290 291 288 283 279 279 281 281 276 276 280 278 278 278 277 274 270 267 263 261 259 257 252 250 251 251 252
252 263 272 259 264 272 275 274 271 274 270 266 270 275 276 279 282 287 290 288 283 278 278 280 282 278 278 276 273 273 273 273 273 271 270 266 262 262 260 260 262 259 258 258
258 265 267 273 281 274 263 261 265 269 273 273 274 277 279 282 285 287 288 288 284 282 282 283 283 280 278 273 268 268 269 270 269 267 266 265 265 267 263 259 264 258 261 263
271 283 280 278 276 274 269 270 270 265 262 266 273 277 282 290 293 290 287 287 286 287 287 286 286 284 284 278 269 267 268 270 270 267 265 263 263 265 273 272 257 252 250 254
261 270 268 268 277 279 277 276 274 274 275 276 278 283 286 290 292 292 293 295 292 287 285 286 286 286 289 283 274 271 272 271 269 268 267 266 266 268 269 273 276 273 254 240
255 259 262 274 278 280 281 276 272 275 282 284 286 285 287 290 292 295 297 297 294 290 291 292 291 293 295 287 279 276 274 273 274 275 271 268 268 268 268 270 272 275 279 264
262 257 252 253 260 270 270 268 270 277 283 284 286 287 288 291 293 295 297 293 289 290 294 296 296 301 301 294 286 279 275 275 277 276 273 271 270 270 271 271 272 272 272 277
247 245 245 250 254 260 268 272 272 276 280 285 292 296 296 297 296 296 302 297 291 290 293 295 300 306 304 296 288 284 282 277 270 271 271 271 272 273 274 273 272 272 271 270
246 249 248 248 254 260 267 274 276 279 282 289 293 296 297 296 298 300 302 301 298 296 299 304 308 304 301 299 294 288 284 280 276 275 275 274 276 274 273 273 273 274 276 270
237 240 246 253 262 261 262 268 272 276 286 291 290 291 295 298 301 302 301 298 297 299 310 315 314 304 302 303 301 290 288 285 283 283 282 282 279 275 275 274 275 275 274 272
208 213 232 252 260 262 271 281 286 288 295 297 292 293 299 305 305 302 297 295 298 304 308 310 305 304 302 301 301 292 291 289 288 288 288 285 282 281 279 278 277 277 275 272
203 214 235 256 267 271 272 275 278 285 295 295 289 290 298 305 307 303 299 300 309 316 313 307 304 303 302 306 297 294 294 294 291 289 290 289 288 286 285 283 281 278 277 277
232 242 259 275 281 283 282 281 284 289 293 293 293 295 299 303 304 301 296 300 310 317 310 304 304 312 313 302 293 292 291 293 294 293 291 290 290 290 291 291 291 288 282 280
252 256 263 272 279 285 289 291 291 289 289 291 292 294 297 301 298 297 300 308 311 316 309 304 315 317 313 303 296 291 290 290 291 292 292 292 293 292 291 292 294 294 294 292
250 256 268 278 281 282 292 305 309 303 300 296 295 300 301 300 298 298 300 309 316 315 306 310 314 316 312 305 302 298 297 296 294 293 296 296 297 297 296 296 296 296 295 294
254 260 264 271 280 291 299 305 304 304 304 303 304 306 303 299 299 303 305 310 321 318 308 307 307 308 305 301 303 305 305 303 303 303 300 301 303 303 301 301 302 302 301 299
248 254 259 263 275 284 287 289 293 296 299 302 305 308 309 309 307 304 302 305 310 313 310 307 306 304 301 302 304 304 303 305 306 304 302 302 301 301 302 303 302 302 302 302
248 255 260 268 274 274 276 280 284 288 291 294 300 305 306 307 308 310 309 306 308 310 311 312 313 312 310 309 307 307 308 308 307 306 305 304 304 305 306 305 306 306 305 305
Height
1529 1530 1531 1530 1529 1530 1530 1527 1528 1523 1523 1521 1523 1525 1527 1529 1529 1530 1530 1530 1530 1530 1530 1530 1530 1529 1529 1529 1530 1530 1531 1531 1532 1532 1532 1532 1533 1533 1534 1534 1534 1534 1534 1534
1530 1530 1531 1530 1526 1525 1525 1524 1523 1523 1522 1520 1523 1525 1526 1527 1528 1528 1528 1529 1529 1529 1528 1528 1528 1527 1527 1527 1527 1528 1528 1528 1529 1529 1529 1529 1529 1530 1530 1530 1530 1531 1531 1531
1528 1528 1530 1527 1519 1520 1521 1520 1520 1520 1518 1520 1522 1523 1524 1525 1526 1526 1527 1527 1527 1527 1526 1526 1526 1525 1525 1525 1525 1525 1525 1526 1526 1526 1526 1526 1526 1526 1526 1526 1527 1527 1527 1527
1529 1529 1533 1517 1516 1517 1517 1517 1517 1517 1518 1520 1521 1522 1523 1523 1524 1524 1525 1524 1524 1524 1524 1524 1523 1523 1523 1523 1522 1522 1523 1523 1523 1523 1523 1523 1523 1523 1523 1523 1523 1523 1523 1523
1529 1527 1519 1515 1515 1517 1517 1515 1516 1516 1518 1519 1521 1521 1521 1521 1522 1522 1522 1522 1522 1521 1521 1521 1520 1520 1520 1520 1520 1519 1519 1519 1519 1520 1519 1519 1519 1519 1519 1519 1519 1518 1518 1518
1529 1530 1524 1513 1515 1517 1518 1514 1514 1516 1517 1518 1519 1516 1516 1519 1519 1519 1519 1519 1519 1518 1518 1518 1518 1517 1517 1517 1517 1516 1516 1516 1516 1516 1516 1515 1515 1515 1515 1515 1514 1514 1514 1514
1525 1524 1514 1513 1517 1518 1520 1513 1514 1515 1516 1517 1516 1516 1517 1516 1517 1517 1516 1516 1516 1516 1515 1515 1514 1514 1514 1513 1513 1513 1512 1512 1512 1512 1511 1511 1511 1511 1510 1510 1510 1510 1509 1509
1521 1522 1517 1515 1516 1516 1514 1514 1514 1514 1515 1515 1515 1514 1514 1514 1514 1514 1513 1513 1513 1512 1512 1512 1511 1511 1510 1509 1509 1509 1509 1508 1508 1507 1507 1507 1507 1506 1506 1505 1505 1505 1504 1504
1515 1515 1514 1515 1515 1515 1515 1514 1513 1513 1513 1513 1512 1512 1512 1511 1511 1510 1510 1510 1509 1509 1509 1508 1508 1507 1506 1506 1506 1505 1504 1504 1503 1503 1502 1502 1502 1501 1501 1501 1500 1500 1499 1499
1514 1512 1513 1514 1514 1513 1513 1513 1512 1511 1511 1510 1510 1509 1509 1509 1508 1507 1507 1506 1506 1505 1505 1504 1504 1503 1503 1502 1501 1501 1500 1500 1499 1498 1498 1497 1497 1497 1496 1495 1495 1495 1494 1494
1511 1511 1512 1511 1511 1511 1510 1510 1509 1509 1508 1507 1507 1506 1506 1505 1505 1504 1503 1503 1502 1501 1500 1500 1499 1499 1498 1497 1497 1496 1496 1495 1495 1494 1493 1492 1492 1491 1490 1490 1490 1489 1488 1488
1507 1508 1508 1508 1508 1508 1507 1507 1506 1506 1505 1504 1504 1503 1503 1502 1501 1500 1500 1499 1498 1497 1497 1496 1495 1494 1493 1493 1492 1492 1491 1491 1490 1489 1488 1487 1486 1485 1484 1484 1483 1482 1482 1482
1507 1506 1506 1505 1506 1505 1505 1504 1503 1503 1502 1501 1500 1500 1499 1498 1497 1496 1495 1495 1494 1493 1492 1491 1490 1490 1489 1488 1487 1487 1486 1486 1485 1484 1483 1482 1481 1479 1478 1477 1476 1475 1475 1474
1504 1504 1503 1503 1503 1502 1502 1501 1500 1500 1499 1498 1497 1497 1496 1495 1494 1493 1491 1490 1489 1489 1488 1487 1486 1485 1484 1484 1483 1482 1481 1480 1479 1478 1478 1477 1476 1474 1473 1471 1470 1469 1468 1467
1500 1500 1500 1499 1499 1499 1498 1498 1497 1497 1496 1495 1495 1494 1493 1491 1490 1488 1487 1486 1485 1484 1483 1482 1481 1480 1479 1479 1478 1477 1476 1475 1474 1473 1472 1471 1470 1469 1467 1466 1464 1463 1462 1461
1496 1496 1496 1496 1495 1495 1495 1494 1494 1493 1493 1492 1492 1490 1489 1488 1486 1485 1483 1482 1481 1480 1479 1478 1476 1475 1474 1473 1472 1472 1471 1470 1469 1467 1466 1465 1464 1463 1462 1460 1459 1457 1456 1455
1493 1493 1493 1492 1492 1492 1492 1491 1491 1491 1490 1489 1488 1487 1486 1484 1483 1481 1480 1478 1477 1476 1474 1473 1472 1471 1469 1468 1468 1467 1466 1465 1463 1462 1461 1460 1458 1457 1456 1454 1453 1451 1450 1449
1490 1490 1490 1490 1490 1489 1489 1489 1488 1488 1487 1486 1485 1484 1482 1481 1479 1478 1476 1475 1474 1472 1471 1469 1468 1467 1465 1464 1463 1462 1461 1460 1458 1457 1455 1454 1453 1451 1450 1448 1446 1445 1443 1442
1486 1486 1487 1487 1487 1486 1486 1486 1485 1485 1484 1483 1482 1481 1480 1478 1476 1475 1473 1471 1470 1468 1467 1465 1463 1462 1460 1459 1458 1457 1456 1454 1453 1451 1450 1448 1446 1445 1444 1442 1440 1439 1437 1436
1483 1484 1484 1484 1484 1484 1484 1483 1483 1482 1481 1480 1479 1478 1476 1475 1473 1471 1469 1468 1466 1464 1462 1461 1459 1457 1456 1454 1453 1452 1450 1449 1447 1446 1444 1442 1441 1439 1438 1436 1434 1433 1431 1430
1481 1481 1481 1481 1481 1481 1481 1480 1480 1479 1478 1477 1476 1474 1473 1471 1470 1468 1466 1464 1462 1460 1458 1456 1454 1453 1451 1450 1448 1447 1445 1444 1443 1441 1439 1437 1435 1434 1432 1430 1428 1427 1425 1423
1479 1479 1479 1479 1478 1478 1478 1477 1477 1476 1475 1474 1472 1471 1469 1467 1466 1464 1463 1461 1459 1457 1455 1453 1451 1449 1447 1446 1444 1443 1441 1439 1438 1436 1434 1432 1430 1428 1426 1424 1423 1421 1419 1417
1477 1477 1477 1476 1476 1475 1475 1474 1473 1472 1471 1470 1469 1467 1466 1464 1463 1461 1459 1457 1455 1453 1451 1449 1447 1445 1443 1441 1440 1438 1436 1435 1433 1431 1429 1427 1425 1423 1421 1419 1417 1415 1412 1410
1474 1474 1474 1474 1473 1472 1472 1471 1470 1469 1468 1467 1465 1464 1463 1461 1459 1458 1456 1454 1452 1449 1447 1445 1443 1441 1439 1437 1435 1433 1432 1430 1428 1426 1425 1422 1420 1418 1416 1413 1411 1409 1407 1405
1472 1472 1471 1471 1470 1470 1469 1468 1467 1466 1465 1463 1462 1461 1460 1458 1456 1454 1452 1450 1448 1445 1443 1441 1439 1437 1435 1433 1431 1430 1428 1426 1424 1422 1420 1418 1415 1413 1410 1408 1406 1403 1401 1399
1469 1469 1469 1468 1468 1467 1466 1465 1464 1463 1462 1460 1459 1458 1456 1455 1453 1451 1449 1446 1444 1442 1440 1437 1436 1434 1432 1430 1427 1426 1424 1422 1420 1418 1416 1413 1411 1408 1405 1403 1400 1398 1396 1394
1466 1466 1466 1465 1465 1464 1463 1462 1461 1460 1459 1458 1456 1455 1453 1451 1449 1447 1445 1443 1441 1439 1436 1434 1432 1430 1428 1426 1424 1422 1420 1418 1416 1414 1411 1408 1406 1403 1401 1398 1396 1393 1391 1389